STARLINK-1578 (46082 NORAD) Tracking and Keplerian Element Data

This shows tracking and keplerian element data for the satellite.

Feedback or suggestion? Click here.




ElementValue
Catalog46082
NameSTARLINK-1578
Epoch Orbit1908
Epoch Day338.64454005
Epoch Year2020
RAAN85.0053
Inclination53.003
Eccentricity0.0001426
Argument of Perigee89.5117
Mean Anonmoly270.6034
Mean Motion15.05573466
Decay Rate-1.704E-05
L11 46082U 20055BH 20338.64454005 -.00001704 00000-0 -97792-4 0 9998
L22 46082 53.0030 85.0053 0001426 89.5117 270.6034 15.05573466 19080

Live tracking and technical data element details for STARLINK-1578 (NORAD 46082). STARLINK-1578 can be tracked NOW for your location showing map with azimuth and elevation plus other details from your city location.

Track the satellite on the map from your city or location and see movement details for azimuth, elevation, latitude, longitude, range, height, and movement on the map or in text.







IsCatalogInMostPopularTable: catalog: 46082, numindb: 27
Update: records affected: 1



GetName: 46082 STARLINK-1578

Hit Count: updated at: Sat, 05 Dec 2020 05:32:10 GMT